Location: Moscow
(55.7500°N, 37.5830°E)
Time: 07:10:29
(UTC+03:00)

N. Korean satellite - Pass Details

Date: 24 October 2021
Orbit: 446 x 495 km, 97.3° (Epoch: 04 December)

Event Time Altitude Azimuth Distance (km) Brightness Sun altitude
Rises 05:23:21 0° 19° (NNE) 2,603 10.6 -16.8°
Reaches altitude 10° 05:25:35 10° 29° (NNE) 1,713 9.8 -16.5°
Maximum altitude 05:29:00 35° 97° (E) 825 8.4 -16.0°
Drops below altitude 10° 05:32:22 10° 164° (SSE) 1,689 9.5 -15.6°
Sets 05:34:33 0° 174° (S) 2,560 10.3 -15.3°
